Change the Weather History Date:

Sunday, June 9, 2013

  Actual Average Record
Temperature  
Mean Temperature 71 °F 60 °F  
Max Temperature 97 °F 77 °F 97 °F (1918)
Min Temperature 45 °F 43 °F 26 °F (1950)
Degree Days  
Heating Degree Days 0 6  
Month to date heating degree days 11 62  
Since 1 June heating degree days 11 62  
Since 1 July heating degree days 6733 6997  
Cooling Degree Days 6 1  
Month to date cooling degree days 25 8  
Year to date cooling degree days 29 12  
Since 1 June cooling degree days 25 8  
Growing Degree Days 23 (Base 50)    
Moisture  
Dew Point 33 °F    
Average Humidity 30    
Maximum Humidity 50    
Minimum Humidity 10    
Precipitation  
Precipitation 0.00 in 0.02 in 0.70 in (1957)
Month to date precipitation 0.00 0.26  
Year to date precipitation 2.67 5.15  
Snow  
Snow 0.00 in 0.00 in T in (1964)
Month to date snowfall 0.0 0.0  
Since 1 June snowfall 0.0 0.0  
Since 1 July snowfall 42.2 41.3  
Snow Depth 0.00 in    
Sea Level Pressure  
Sea Level Pressure 29.83 in    
Wind  
Wind Speed 7 mph (SSW)    
Max Wind Speed 31 mph    
Max Gust Speed 41 mph    
Visibility 10 miles    
Events      
T = Trace of Precipitation, MM = Missing Value Source: NWS Daily Summary

Daily Weather History Graph

Daily Weather History Graph

Search for Another Location

Airport or City:

Trip Planner

Search our weather history database for the weather conditions in past years. The results will help you decide how hot, cold, wet, or windy it might be!

Date:

Astronomy

Jun. 09, 2013 Rise Set
Actual Time 5:11 AM PDT 8:13 PM PDT
Civil Twilight 4:38 AM PDT 8:47 PM PDT
Nautical Twilight 3:55 AM PDT 9:29 PM PDT
Astronomical Twilight 3:06 AM PDT 10:19 PM PDT
Moon 6:12 AM PDT (6/9) 9:03 PM PDT (6/9)
Length of Visible Light 16h 08m
Length of Day
15h 02m
New Moon, 1% of the Moon is Illuminated
Jun 9
New Moon
Jun 16
First Quarter
Jun 23
Full
Jun 29
Last Quarter
Jul 8
New

Hourly Weather History & Observations

Time (PDT) Temp. Dew Point Humidity Pressure Visibility Wind Dir Wind Speed Gust Speed Precip Events Conditions
12:56 AM 63.0 °F 30.0 °F 29% 29.93 in 10.0 mi Calm Calm - N/A   Clear
1:56 AM 51.1 °F 34.0 °F 52% 29.94 in 10.0 mi SSE 3.5 mph - N/A   Clear
2:56 AM 53.1 °F 33.1 °F 47% 29.94 in 10.0 mi Calm Calm - N/A   Clear
3:56 AM 52.0 °F 32.0 °F 47% 29.94 in 10.0 mi Calm Calm - N/A   Clear
4:56 AM 51.1 °F 30.0 °F 44% 29.93 in 10.0 mi Calm Calm - N/A   Clear
5:56 AM 50.0 °F 30.0 °F 46% 29.94 in 10.0 mi Calm Calm - N/A   Clear
6:56 AM 57.9 °F 32.0 °F 37% 29.94 in 10.0 mi Calm Calm - N/A   Clear
7:56 AM 64.9 °F 30.9 °F 28% 29.92 in 10.0 mi Calm Calm - N/A   Clear
8:56 AM 72.0 °F 33.1 °F 24% 29.91 in 10.0 mi Calm Calm - N/A   Clear
9:56 AM 80.1 °F 34.0 °F 19% 29.87 in 10.0 mi NE 4.6 mph - N/A   Clear
10:56 AM 84.9 °F 32.0 °F 15% 29.85 in 10.0 mi Calm Calm - N/A   Clear
11:56 AM 89.1 °F 30.9 °F 12% 29.85 in 10.0 mi SW 5.8 mph - N/A   Clear
12:56 PM 91.0 °F 33.1 °F 13% 29.81 in 10.0 mi WSW 8.1 mph - N/A   Clear
1:56 PM 95.0 °F 33.1 °F 11% 29.80 in 10.0 mi SW 13.8 mph 17.3 mph N/A   Clear
2:56 PM 95.0 °F 33.1 °F 11% 29.76 in 10.0 mi SSW 6.9 mph 17.3 mph N/A   Clear
3:56 PM 96.1 °F 30.9 °F 10% 29.73 in 10.0 mi WSW 10.4 mph 18.4 mph N/A   Clear
4:56 PM 93.0 °F 30.0 °F 11% 29.73 in 10.0 mi West 8.1 mph - N/A   Clear
5:56 PM 90.0 °F 35.1 °F 14% 29.73 in 10.0 mi South 11.5 mph 21.9 mph N/A   Partly Cloudy
6:13 PM 89.6 °F 35.6 °F 15% 29.89 in 9.0 mi South 18.4 mph 28.8 mph N/A   Clear
6:56 PM 84.9 °F 36.0 °F 17% 29.73 in 10.0 mi SSE 27.6 mph 38.0 mph N/A   Clear
7:56 PM 84.0 °F 36.0 °F 18% 29.70 in 10.0 mi South 17.3 mph 24.2 mph N/A   Partly Cloudy
8:56 PM 82.0 °F 36.0 °F 19% 29.71 in 10.0 mi South 5.8 mph - N/A   Clear
9:56 PM 82.0 °F 37.0 °F 20% 29.73 in 10.0 mi SW 15.0 mph - N/A   Clear
10:56 PM 82.0 °F 36.0 °F 19% 29.70 in 10.0 mi Variable 6.9 mph - N/A   Partly Cloudy
11:56 PM 77.0 °F 37.9 °F 24% 29.71 in 10.0 mi SSW 9.2 mph - N/A   Clear